Weather History for KRXE - October, 2011

Change the Weather History Date:

Saturday, October 15, 2011

  Actual Average Record
Temperature  
Mean Temperature 53 °F 45 °F  
Max Temperature 66 °F 59 °F 73 °F (2005)
Min Temperature 40 °F 32 °F 23 °F (2002)
Degree Days  
Heating Degree Days 12 20  
Month to date heating degree days 213 260  
Since 1 July heating degree days 370 618  
Cooling Degree Days 0 0  
Month to date cooling degree days 0 0  
Year to date cooling degree days 222 208  
Growing Degree Days 2 (Base 50)    
Moisture  
Dew Point 41 °F    
Average Humidity 68    
Maximum Humidity 92    
Minimum Humidity 44    
Precipitation  
Precipitation 0.00 in 0.04 in 0.68 in (1983)
Month to date precipitation 1.55 0.54  
Year to date precipitation 11.96 10.42  
Sea Level Pressure  
Sea Level Pressure 29.94 in    
Wind  
Wind Speed 8 mph (SSW)    
Max Wind Speed 18 mph    
Max Gust Speed 26 mph    
Visibility 10 miles    
Events      
T = Trace of Precipitation, MM = Missing Value Source: NWS Daily Summary

Daily Weather History Graph

Daily Weather History Graph

Search for Another Location

Airport or City:

Trip Planner

Search our weather history database for the weather conditions in past years. The results will help you decide how hot, cold, wet, or windy it might be!

Date:

Astronomy

Oct. 15, 2011 Rise Set
Actual Time 7:41 AM MDT 6:43 PM MDT
Civil Twilight 7:12 AM MDT 7:12 PM MDT
Nautical Twilight 6:39 AM MDT 7:46 PM MDT
Astronomical Twilight 6:05 AM MDT 8:19 PM MDT
Moon 8:35 PM MDT (10/15) 11:17 AM MDT (10/15)
Length of Visible Light 12h 00m
Length of Day
11h 02m
Waning Gibbous, 88% of the Moon is Illuminated
Oct 15
Waning Gibbous
Oct 19
Last Quarter
Oct 26
New
Nov 2
First Quarter
Nov 10
Full

Hourly Weather History & Observations

Time (MDT) Temp. Windchill Dew Point Humidity Pressure Visibility Wind Dir Wind Speed Gust Speed Precip Events Conditions
12:53 AM 52.0 °F - 39.9 °F 63% 29.95 in 10.0 mi WSW 8.1 mph - N/A   Clear
1:53 AM 48.0 °F - 39.0 °F 71% 29.96 in 10.0 mi Calm Calm - N/A   Clear
2:53 AM 45.0 °F 42.6 °F 39.0 °F 80% 29.96 in 10.0 mi NE 4.6 mph - N/A   Clear
3:53 AM 45.0 °F - 39.0 °F 80% 29.95 in 10.0 mi Calm Calm - N/A   Clear
4:53 AM 44.1 °F 41.5 °F 39.0 °F 82% 29.94 in 10.0 mi NNE 4.6 mph - N/A   Clear
5:53 AM 42.1 °F 39.2 °F 37.9 °F 85% 29.95 in 10.0 mi ENE 4.6 mph - N/A   Clear
6:53 AM 42.1 °F 40.2 °F 37.9 °F 85% 29.95 in 10.0 mi ENE 3.5 mph - N/A   Clear
7:53 AM 39.9 °F 36.7 °F 37.0 °F 89% 29.97 in 10.0 mi NE 4.6 mph - N/A   Clear
8:53 AM 41.0 °F 39.0 °F 37.0 °F 86% 29.97 in 10.0 mi ENE 3.5 mph - N/A   Clear
9:53 AM 48.9 °F - 41.0 °F 74% 29.96 in 10.0 mi Calm Calm - N/A   Clear
10:53 AM 55.0 °F - 41.0 °F 59% 29.96 in 10.0 mi WSW 5.8 mph - N/A   Clear
11:53 AM 57.0 °F - 39.9 °F 53% 29.96 in 10.0 mi WSW 6.9 mph - N/A   Clear
12:53 PM 60.1 °F - 42.1 °F 51% 29.95 in 10.0 mi SW 9.2 mph - N/A   Clear
1:53 PM 64.0 °F - 43.0 °F 46% 29.92 in 10.0 mi SW 6.9 mph - N/A   Clear
2:53 PM 64.9 °F - 42.1 °F 43% 29.91 in 10.0 mi SSW 17.3 mph 24.2 mph N/A   Clear
3:53 PM 64.9 °F - 43.0 °F 45% 29.90 in 10.0 mi SSW 16.1 mph 21.9 mph N/A   Clear
4:53 PM 64.9 °F - 44.1 °F 47% 29.90 in 10.0 mi SSW 16.1 mph 25.3 mph N/A   Clear
5:53 PM 63.0 °F - 43.0 °F 48% 29.90 in 10.0 mi SSW 17.3 mph 25.3 mph N/A   Clear
6:53 PM 61.0 °F - 43.0 °F 52% 29.91 in 10.0 mi SSW 11.5 mph 19.6 mph N/A   Clear
7:53 PM 59.0 °F - 44.1 °F 58% 29.94 in 10.0 mi South 6.9 mph - N/A   Clear
8:53 PM 57.9 °F - 43.0 °F 58% 29.95 in 10.0 mi South 10.4 mph - N/A   Clear
9:00 PM - - - N/A% - - North - - N/A   Unknown
9:53 PM 59.0 °F - 43.0 °F 55% 29.94 in 10.0 mi SSW 11.5 mph - N/A   Clear
10:53 PM 57.9 °F - 44.1 °F 60% 29.94 in 10.0 mi SSW 13.8 mph 19.6 mph N/A   Partly Cloudy
11:53 PM 57.9 °F - 44.1 °F 60% 29.94 in 10.0 mi SSW 10.4 mph - N/A   Clear